Omaha, NE

12:37 AM CST on February 21, 2017 (GMT -0600)
Eppley Airfield

Weather History for KOMA - September, 2013

Change the Weather History Date:

Saturday, September 7, 2013

  Actual Average Record
Temperature  
Mean Temperature 80 °F 69 °F  
Max Temperature 89 °F 81 °F 103 °F (1939)
Min Temperature 71 °F 58 °F 43 °F (1956)
Degree Days  
Heating Degree Days 0 1  
Month to date heating degree days 0 7  
Since 1 July heating degree days 5 15  
Cooling Degree Days 15 6  
Month to date cooling degree days 72 45  
Year to date cooling degree days 1138 1025  
Growing Degree Days 30 (Base 50)    
Moisture  
Dew Point 69 °F    
Average Humidity 73    
Maximum Humidity 93    
Minimum Humidity 53    
Precipitation  
Precipitation 0.01 in 0.10 in 6.24 in (1965)
Month to date precipitation 1.01 0.70  
Year to date precipitation 22.25 23.81  
Snow  
Snow 0.00 in 0.00 in - ()
Month to date snowfall 0.0 0.0  
Since 1 July snowfall 0.0 0.0  
Snow Depth 0.00 in    
Sea Level Pressure  
Sea Level Pressure 29.88 in    
Wind  
Wind Speed 7 mph (ESE)    
Max Wind Speed 14 mph    
Max Gust Speed 22 mph    
Visibility 10 miles    
Events Rain    
T = Trace of Precipitation, MM = Missing Value Source: NWS Daily Summary

Daily Weather History Graph

Daily Weather History Graph

Search for Another Location

Airport or City:

Trip Planner

Search our weather history database for the weather conditions in past years. The results will help you decide how hot, cold, wet, or windy it might be!

Date:

Astronomy

Sep. 07, 2013 Rise Set
Actual Time 6:56 AM CDT 7:45 PM CDT
Civil Twilight 6:28 AM CDT 8:13 PM CDT
Nautical Twilight 5:54 AM CDT 8:47 PM CDT
Astronomical Twilight 5:20 AM CDT 9:21 PM CDT
Moon 9:13 AM CDT (9/7) 8:42 PM CDT (9/7)
Length of Visible Light 13h 45m
Length of Day
12h 49m
Waxing Crescent, 5% of the Moon is Illuminated
Sep 7
Waxing Crescent
Sep 12
First Quarter
Sep 19
Full
Sep 26
Last Quarter
Oct 4
New

Hourly Weather History & Observations

Time (CDT) Temp. Heat Index Dew Point Humidity Pressure Visibility Wind Dir Wind Speed Gust Speed Precip Events Conditions
12:52 AM 77.0 °F - 66.9 °F 71% 29.90 in 10.0 mi SSE 10.4 mph - N/A   Partly Cloudy
1:52 AM 77.0 °F - 66.9 °F 71% 29.90 in 10.0 mi South 11.5 mph - N/A   Clear
2:52 AM 75.0 °F - 66.9 °F 76% 29.89 in 10.0 mi SSE 10.4 mph - N/A   Clear
3:52 AM 73.9 °F - 66.9 °F 79% 29.88 in 10.0 mi SSE 11.5 mph - N/A   Clear
4:52 AM 73.9 °F - 66.0 °F 76% 29.88 in 10.0 mi SSE 10.4 mph - N/A   Clear
5:52 AM 73.0 °F - 66.0 °F 79% 29.88 in 10.0 mi SSE 10.4 mph - N/A   Clear
6:52 AM 72.0 °F - 66.0 °F 81% 29.87 in 10.0 mi SSE 11.5 mph - N/A   Partly Cloudy
7:52 AM 72.0 °F - 66.0 °F 81% 29.87 in 10.0 mi SSE 10.4 mph - N/A   Scattered Clouds
8:52 AM 75.0 °F - 66.9 °F 76% 29.87 in 10.0 mi SE 8.1 mph - N/A   Scattered Clouds
9:52 AM 79.0 °F - 66.0 °F 64% 29.88 in 10.0 mi South 5.8 mph - N/A   Mostly Cloudy
10:52 AM 82.0 °F 84.5 °F 66.9 °F 60% 29.87 in 10.0 mi South 6.9 mph - N/A   Mostly Cloudy
11:52 AM 82.9 °F 85.4 °F 66.9 °F 58% 29.88 in 10.0 mi ESE 8.1 mph - N/A   Mostly Cloudy
12:52 PM 88.0 °F 91.4 °F 68.0 °F 51% 29.88 in 10.0 mi Calm Calm - N/A   Mostly Cloudy
1:52 PM 82.9 °F 87.5 °F 71.1 °F 67% 29.90 in 6.0 mi NW 9.2 mph - 0.01 in Rain Light Rain
2:52 PM 84.0 °F 88.4 °F 70.0 °F 63% 29.84 in 10.0 mi East 5.8 mph - 0.00 in   Mostly Cloudy
3:52 PM 84.0 °F 89.6 °F 72.0 °F 67% 29.86 in 10.0 mi NNW 9.2 mph - N/A   Mostly Cloudy
4:52 PM 87.1 °F 92.8 °F 71.1 °F 59% 29.87 in 10.0 mi NNW 10.4 mph - N/A   Mostly Cloudy
5:52 PM 84.9 °F 90.1 °F 71.1 °F 63% 29.87 in 10.0 mi North 8.1 mph - N/A   Mostly Cloudy
6:52 PM 81.0 °F 85.2 °F 72.0 °F 74% 29.87 in 10.0 mi North 5.8 mph - N/A   Mostly Cloudy
7:52 PM 79.0 °F - 72.0 °F 79% 29.88 in 10.0 mi North 3.5 mph - N/A   Mostly Cloudy
8:52 PM 75.9 °F - 72.0 °F 87% 29.89 in 10.0 mi Calm Calm - N/A   Mostly Cloudy
9:52 PM 73.9 °F - 71.1 °F 91% 29.89 in 8.0 mi North 3.5 mph - N/A   Mostly Cloudy
10:52 PM 73.9 °F - 71.1 °F 91% 29.90 in 6.0 mi North 4.6 mph - N/A   Scattered Clouds
11:52 PM 73.0 °F - 70.0 °F 90% 29.90 in 5.0 mi North 5.8 mph - N/A   Scattered Clouds